,,PA_Meas_PMT16A,,PR_Meas_QMR101_102,,RH_Meas_QMH101,,SR_Meas_QMS101,,TA_Meas_QMH101,,GenWind,,GenWind,
time,status,PA,status,PR,status,RH,status,SR,status,TA,status,DirAvg,status,SpdAvg,
2011-12-29, 00:00:04,VALID,918.72,VALID,0,VALID,94.3245,VALID,0,VALID,19.9173,VALID,118,VALID,0.544531,
2011-12-29, 00:01:04,VALID,918.706,VALID,0,VALID,94.2559,VALID,0,VALID,19.9188,VALID,118,VALID,0.638281,
2011-12-29, 00:02:04,VALID,918.678,VALID,0,VALID,94.1187,VALID,0,VALID,19.8978,VALID,118,VALID,0.420312,
2011-12-29, 00:03:04,VALID,918.669,VALID,0,VALID,94.1949,VALID,0,VALID,19.8978,VALID,127,VALID,0.545313,
2011-12-29, 00:04:04,VALID,918.617,VALID,0,VALID,94.2178,VALID,0,VALID,19.8588,VALID,135,VALID,0.854688,
2011-12-29, 00:05:04,VALID,918.605,VALID,0,VALID,94.2712,VALID,0,VALID,19.8588,VALID,135,VALID,0.449609,
2011-12-29, 00:06:04,VALID,918.594,VALID,0,VALID,94.294,VALID,0,VALID,19.8393,VALID,135,VALID,0.567969,
2011-12-29, 00:07:04,VALID,918.567,VALID,0,VALID,94.3093,VALID,0,VALID,19.8198,VALID,135,VALID,0.559375,
2011-12-29, 00:08:04,VALID,918.542,VALID,0,VALID,94.4465,VALID,0,VALID,19.8003,VALID,135,VALID,0.396094,
2011-12-29, 00:09:04,VALID,918.522,VALID,0,VALID,94.5151,VALID,0,VALID,19.8003,VALID,135,VALID,0.400391,
2011-12-29, 00:10:04,VALID,918.554,VALID,0,VALID,94.6295,VALID,0,VALID,19.8003,VALID,135,VALID,0.472656,
2011-12-29, 00:11:04,VALID,918.533,VALID,0,VALID,94.5837,VALID,0,VALID,19.7598,VALID,135,VALID,0.302734,
2011-12-29, 00:12:04,VALID,918.548,VALID,0,VALID,94.6218,VALID,0,VALID,19.7808,VALID,135,VALID,0.567969,
2011-12-29, 00:13:04,VALID,918.513,VALID,0,VALID,94.7438,VALID,0,VALID,19.7808,VALID,135,VALID,0.621875,
2011-12-29, 00:14:04,VALID,918.536,VALID,0,VALID,94.8582,VALID,0,VALID,19.7613,VALID,135,VALID,1.15156,
2011-12-29, 00:15:04,VALID,918.534,VALID,0,VALID,95.003,VALID,0,VALID,19.8003,VALID,140,VALID,0.745703,
2011-12-29, 00:16:04,VALID,918.565,VALID,0,VALID,95.0335,VALID,0,VALID,19.8183,VALID,159,VALID,0.376172,
2011-12-29, 00:17:04,VALID,918.588,VALID,0,VALID,94.9725,VALID,0,VALID,19.8393,VALID,144,VALID,0.748438,
2011-12-29, 00:18:04,VALID,918.573,VALID,0,VALID,94.9192,VALID,0,VALID,19.8003,VALID,132,VALID,0.379297,
2011-12-29, 00:19:04,VALID,918.576,VALID,0,VALID,95.0945,VALID,0,VALID,19.8393,VALID,133,VALID,1.01836,
2011-12-29, 00:20:04,VALID,918.582,VALID,0,VALID,95.0335,VALID,0,VALID,19.8393,VALID,133,VALID,0.548828,
2011-12-29, 00:21:04,VALID,918.575,VALID,0,VALID,95.0411,VALID,0,VALID,19.8393,VALID,156,VALID,0.582031,
2011-12-29, 00:22:04,VALID,918.576,VALID,0,VALID,95.0488,VALID,0,VALID,19.8378,VALID,172,VALID,0.691406,
2011-12-29, 00:23:04,VALID,918.571,VALID,0,VALID,95.064,VALID,0,VALID,19.8783,VALID,160,VALID,0.690625,
2011-12-29, 00:24:04,VALID,918.558,VALID,0,VALID,95.1021,VALID,0,VALID,19.8978,VALID,160,VALID,0.759766,
2011-12-29, 00:25:04,VALID,918.57,VALID,0,VALID,95.0945,VALID,0,VALID,19.8963,VALID,160,VALID,0.833984,
2011-12-29, 00:26:04,VALID,918.547,VALID,0,VALID,95.0259,VALID,0,VALID,19.9368,VALID,160,VALID,0.880859,
2011-12-29, 00:27:04,VALID,918.543,VALID,0,VALID,95.0259,VALID,0,VALID,19.9368,VALID,160,VALID,1.00937,
2011-12-29, 00:28:04,VALID,918.524,VALID,0,VALID,94.9801,VALID,0,VALID,19.9563,VALID,160,VALID,0.863672,
2011-12-29, 00:29:04,VALID,918.517,VALID,0,VALID,94.9192,VALID,0,VALID,19.9758,VALID,159,VALID,0.563672,
2011-12-29, 00:30:04,VALID,918.52,VALID,0,VALID,94.8582,VALID,0,VALID,19.9563,VALID,159,VALID,0.735937,
2011-12-29, 00:31:04,VALID,918.511,VALID,0,VALID,94.7743,VALID,0,VALID,19.9353,VALID,159,VALID,1.2707,
2011-12-29, 00:32:04,VALID,918.467,VALID,0,VALID,94.7667,VALID,0,VALID,19.9758,VALID,159,VALID,1.27617,
2011-12-29, 00:33:04,VALID,918.477,VALID,0,VALID,94.7057,VALID,0,VALID,19.9953,VALID,161,VALID,1.41367,
2011-12-29, 00:34:04,VALID,918.441,VALID,0,VALID,94.6371,VALID,0,VALID,20.0148,VALID,161,VALID,0.694531,
2011-12-29, 00:35:04,VALID,918.461,VALID,0,VALID,94.5609,VALID,0,VALID,19.9953,VALID,161,VALID,0.842188,
2011-12-29, 00:36:04,VALID,918.442,VALID,0,VALID,94.5532,VALID,0,VALID,19.9953,VALID,161,VALID,0.922266,
2011-12-29, 00:37:04,VALID,918.452,VALID,0,VALID,94.5304,VALID,0,VALID,19.9938,VALID,161,VALID,0.768359,
2011-12-29, 00:38:04,VALID,918.437,VALID,0,VALID,94.477,VALID,0,VALID,19.9953,VALID,161,VALID,0.31875,
2011-12-29, 00:39:04,VALID,918.464,VALID,0,VALID,94.5075,VALID,0,VALID,19.9548,VALID,161,VALID,0.727734,
2011-12-29, 00:40:04,VALID,918.43,VALID,0,VALID,94.4846,VALID,0,VALID,19.9743,VALID,161,VALID,0.391406,
2011-12-29, 00:41:04,VALID,918.422,VALID,0,VALID,94.4313,VALID,0.107441,VALID,19.9953,VALID,161,VALID,0.594531,
2011-12-29, 00:42:04,VALID,918.397,VALID,0,VALID,94.3779,VALID,0,VALID,19.9548,VALID,161,VALID,0.452734,
2011-12-29, 00:43:04,VALID,918.377,VALID,0,VALID,94.3855,VALID,0,VALID,19.9548,VALID,161,VALID,0.658984,
2011-12-29, 00:44:04,VALID,918.326,VALID,0,VALID,94.4236,VALID,0,VALID,19.9758,VALID,161,VALID,0.462891,
2011-12-29, 00:45:04,VALID,918.321,VALID,0,VALID,94.416,VALID,0,VALID,19.9743,VALID,161,VALID,0.517187,
2011-12-29, 00:46:04,VALID,918.316,VALID,0,VALID,94.4617,VALID,0,VALID,19.9953,VALID,161,VALID,0.797656,
2011-12-29, 00:47:04,VALID,918.275,VALID,0,VALID,94.5227,VALID,0,VALID,20.0133,VALID,161,VALID,0.730469,
2011-12-29, 00:48:04,VALID,918.283,VALID,0,VALID,94.4694,VALID,0,VALID,20.0343,VALID,161,VALID,0.0414063,
2011-12-29, 00:49:04,VALID,918.278,VALID,0,VALID,94.3398,VALID,0,VALID,20.0133,VALID,161,VALID,0,
2011-12-29, 00:50:04,VALID,918.275,VALID,0,VALID,94.3093,VALID,0,VALID,20.0343,VALID,161,VALID,0.330859,
2011-12-29, 00:51:04,VALID,918.29,VALID,0,VALID,94.3017,VALID,0,VALID,20.0343,VALID,161,VALID,0.253125,
2011-12-29, 00:52:04,VALID,918.269,VALID,0,VALID,94.2712,VALID,0,VALID,19.9938,VALID,161,VALID,0,
2011-12-29, 00:53:04,VALID,918.247,VALID,0,VALID,94.2635,VALID,0,VALID,20.0148,VALID,161,VALID,0.175,
2011-12-29, 00:54:04,VALID,918.228,VALID,0,VALID,94.2254,VALID,0,VALID,20.0148,VALID,161,VALID,0,
2011-12-29, 00:55:04,VALID,918.23,VALID,0,VALID,94.0196,VALID,0,VALID,20.0148,VALID,161,VALID,0,
2011-12-29, 00:56:04,VALID,918.22,VALID,0,VALID,93.5469,VALID,0,VALID,19.9368,VALID,161,VALID,0.3375,
2011-12-29, 00:57:04,VALID,918.224,VALID,0,VALID,93.4707,VALID,0.107441,VALID,19.8768,VALID,161,VALID,0.015625,
2011-12-29, 00:58:04,VALID,918.165,VALID,0,VALID,93.5012,VALID,0,VALID,19.8183,VALID,161,VALID,0.294531,
2011-12-29, 00:59:04,VALID,918.15,VALID,0,VALID,93.5622,VALID,0,VALID,19.7403,VALID,161,VALID,0.3625,
2011-12-29, 01:00:04,VALID,918.122,VALID,0,VALID,93.8976,VALID,0,VALID,19.6608,VALID,161,VALID,0.427734,
2011-12-29, 01:01:04,VALID,918.109,VALID,0,VALID,94.1263,VALID,0,VALID,19.6233,VALID,161,VALID,0.368359,
2011-12-29, 01:02:04,VALID,918.062,VALID,0,VALID,94.6905,VALID,0.107441,VALID,19.6233,VALID,161,VALID,0.239844,
2011-12-29, 01:03:04,VALID,918.044,VALID,0,VALID,94.7209,VALID,0.107441,VALID,19.6053,VALID,161,VALID,0,
2011-12-29, 01:04:04,VALID,918.005,VALID,0,VALID,94.9725,VALID,0.107441,VALID,19.5453,VALID,161,VALID,0.387891,
2011-12-29, 01:05:04,VALID,917.966,VALID,0,VALID,95.2546,VALID,0,VALID,19.5648,VALID,161,VALID,0.659375,
2011-12-29, 01:06:04,VALID,917.964,VALID,0,VALID,95.3308,VALID,0,VALID,19.5663,VALID,161,VALID,0.584375,
2011-12-29, 01:07:04,VALID,917.955,VALID,0,VALID,95.3308,VALID,0.107441,VALID,19.5258,VALID,161,VALID,0.362109,
2011-12-29, 01:08:04,VALID,917.904,VALID,0,VALID,95.3994,VALID,0,VALID,19.4868,VALID,161,VALID,0.546484,
2011-12-29, 01:09:04,VALID,917.91,VALID,0,VALID,95.5062,VALID,0,VALID,19.4673,VALID,161,VALID,0.907812,
2011-12-29, 01:10:04,VALID,917.899,VALID,0,VALID,95.59,VALID,0,VALID,19.4673,VALID,161,VALID,0.783984,
2011-12-29, 01:11:04,VALID,917.876,VALID,0,VALID,95.6891,VALID,0,VALID,19.4283,VALID,161,VALID,0.932813,
2011-12-29, 01:12:04,VALID,917.88,VALID,0,VALID,95.7501,VALID,0,VALID,19.4493,VALID,160,VALID,0.740625,
2011-12-29, 01:13:04,VALID,917.877,VALID,0,VALID,95.9178,VALID,0,VALID,19.4283,VALID,160,VALID,0.987109,
2011-12-29, 01:14:04,VALID,917.885,VALID,0,VALID,96.0703,VALID,0.107441,VALID,19.4868,VALID,148,VALID,1.23516,
2011-12-29, 01:15:04,VALID,917.867,VALID,0,VALID,96.0779,VALID,0.107441,VALID,19.5063,VALID,111,VALID,0.977734,
2011-12-29, 01:16:04,VALID,917.879,VALID,0,VALID,96.0932,VALID,0,VALID,19.5468,VALID,111,VALID,1.01641,
2011-12-29, 01:17:04,VALID,917.884,VALID,0,VALID,96.1008,VALID,0,VALID,19.5453,VALID,127,VALID,1.2,
2011-12-29, 01:18:04,VALID,917.898,VALID,0,VALID,96.1236,VALID,0,VALID,19.6248,VALID,127,VALID,1.17695,
2011-12-29, 01:19:04,VALID,917.874,VALID,0,VALID,96.0703,VALID,0,VALID,19.6428,VALID,135,VALID,1.24063,
2011-12-29, 01:20:04,VALID,917.835,VALID,0,VALID,95.9559,VALID,0,VALID,19.6638,VALID,135,VALID,0.916797,
2011-12-29, 01:21:04,VALID,917.852,VALID,0,VALID,95.8645,VALID,0,VALID,19.6623,VALID,135,VALID,0.646484,
2011-12-29, 01:22:04,VALID,917.829,VALID,0,VALID,95.7806,VALID,0,VALID,19.6623,VALID,135,VALID,0.351953,
2011-12-29, 01:23:04,VALID,917.863,VALID,0,VALID,95.6586,VALID,0,VALID,19.6428,VALID,135,VALID,0.311719,
2011-12-29, 01:24:04,VALID,917.831,VALID,0,VALID,95.5367,VALID,0,VALID,19.6233,VALID,135,VALID,0.767969,
2011-12-29, 01:25:04,VALID,917.792,VALID,0,VALID,95.5214,VALID,0,VALID,19.6038,VALID,155,VALID,0.817969,
2011-12-29, 01:26:04,VALID,917.798,VALID,0,VALID,95.4375,VALID,0,VALID,19.6248,VALID,155,VALID,1.0418,
2011-12-29, 01:27:04,VALID,917.779,VALID,0,VALID,95.468,VALID,0,VALID,19.6248,VALID,155,VALID,0.54375,
2011-12-29, 01:28:04,VALID,917.771,VALID,0,VALID,95.5138,VALID,0,VALID,19.6248,VALID,144,VALID,0.542578,
2011-12-29, 01:29:04,VALID,917.75,VALID,0,VALID,95.4757,VALID,0,VALID,19.6038,VALID,144,VALID,0.263672,
2011-12-29, 01:30:04,VALID,917.764,VALID,0,VALID,95.4757,VALID,0,VALID,19.6038,VALID,147,VALID,0.672656,
2011-12-29, 01:31:04,VALID,917.727,VALID,0,VALID,95.3918,VALID,0,VALID,19.5648,VALID,146,VALID,0.544141,
2011-12-29, 01:32:04,VALID,917.696,VALID,0,VALID,95.4071,VALID,0,VALID,19.5258,VALID,146,VALID,0.482422,
2011-12-29, 01:33:04,VALID,917.714,VALID,0,VALID,95.6129,VALID,0,VALID,19.5468,VALID,164,VALID,1.53594,
2011-12-29, 01:34:04,VALID,917.705,VALID,0,VALID,95.8187,VALID,0,VALID,19.6053,VALID,167,VALID,1.06914,
2011-12-29, 01:35:04,VALID,917.68,VALID,0,VALID,95.8492,VALID,0,VALID,19.6443,VALID,167,VALID,1.00117,
2011-12-29, 01:36:04,VALID,917.666,VALID,0,VALID,95.7806,VALID,0,VALID,19.6038,VALID,167,VALID,0.411328,
2011-12-29, 01:37:04,VALID,917.676,VALID,0,VALID,95.7958,VALID,0,VALID,19.6053,VALID,167,VALID,0.796484,
2011-12-29, 01:38:04,VALID,917.682,VALID,0,VALID,95.773,VALID,0,VALID,19.6053,VALID,167,VALID,0.849609,
2011-12-29, 01:39:04,VALID,917.644,VALID,0,VALID,95.7577,VALID,0,VALID,19.5843,VALID,167,VALID,0.702734,
2011-12-29, 01:40:04,VALID,917.667,VALID,0,VALID,95.834,VALID,0,VALID,19.6038,VALID,167,VALID,0.608594,
2011-12-29, 01:41:04,VALID,917.631,VALID,0,VALID,95.8645,VALID,0,VALID,19.6638,VALID,167,VALID,0.883594,
2011-12-29, 01:42:04,VALID,917.631,VALID,0,VALID,95.8416,VALID,0,VALID,19.6638,VALID,167,VALID,0.645703,
2011-12-29, 01:43:04,VALID,917.59,VALID,0,VALID,95.8645,VALID,0,VALID,19.7028,VALID,167,VALID,0.319141,
2011-12-29, 01:44:04,VALID,917.58,VALID,0,VALID,95.7654,VALID,0,VALID,19.6818,VALID,167,VALID,0.969922,
2011-12-29, 01:45:04,VALID,917.613,VALID,0,VALID,95.7349,VALID,0,VALID,19.7223,VALID,167,VALID,1.10938,
2011-12-29, 01:46:04,VALID,917.59,VALID,0,VALID,95.6357,VALID,0,VALID,19.7223,VALID,167,VALID,1.04062,
2011-12-29, 01:47:04,VALID,917.592,VALID,0,VALID,95.6662,VALID,0,VALID,19.7208,VALID,167,VALID,1.20352,
2011-12-29, 01:48:04,VALID,917.578,VALID,0,VALID,95.6129,VALID,0,VALID,19.7208,VALID,167,VALID,1.05313,
2011-12-29, 01:49:04,VALID,917.552,VALID,0,VALID,95.5824,VALID,0,VALID,19.7808,VALID,167,VALID,1.12422,
2011-12-29, 01:50:04,VALID,917.579,VALID,0,VALID,95.4833,VALID,0,VALID,19.7808,VALID,167,VALID,1.10547,
2011-12-29, 01:51:04,VALID,917.554,VALID,0,VALID,95.4757,VALID,0,VALID,19.8003,VALID,167,VALID,0.869141,
2011-12-29, 01:52:04,VALID,917.525,VALID,0,VALID,95.4223,VALID,0,VALID,19.8393,VALID,167,VALID,0.471875,
2011-12-29, 01:53:04,VALID,917.517,VALID,0,VALID,95.3079,VALID,0,VALID,19.8198,VALID,167,VALID,0.584766,
2011-12-29, 01:54:04,VALID,917.485,VALID,0,VALID,95.1555,VALID,0,VALID,19.8198,VALID,167,VALID,0.695703,
2011-12-29, 01:55:04,VALID,917.528,VALID,0,VALID,95.0564,VALID,0,VALID,19.7808,VALID,167,VALID,1.04062,
2011-12-29, 01:56:04,VALID,917.522,VALID,0,VALID,95.0411,VALID,0,VALID,19.7403,VALID,167,VALID,0.598437,
2011-12-29, 01:57:04,VALID,917.554,VALID,0,VALID,95.1783,VALID,0,VALID,19.8003,VALID,167,VALID,0.751953,
2011-12-29, 01:58:04,VALID,917.534,VALID,0,VALID,95.1783,VALID,0,VALID,19.7808,VALID,167,VALID,0.482422,
2011-12-29, 01:59:04,VALID,917.498,VALID,0,VALID,95.1631,VALID,0,VALID,19.7808,VALID,167,VALID,0.565234,
2011-12-29, 02:00:04,VALID,917.513,VALID,0,VALID,95.1479,VALID,0,VALID,19.8003,VALID,167,VALID,0.344141,
2011-12-29, 02:01:04,VALID,917.475,VALID,0,VALID,95.1631,VALID,0,VALID,19.8003,VALID,167,VALID,0.625391,
2011-12-29, 02:02:04,VALID,917.485,VALID,0,VALID,95.125,VALID,0,VALID,19.7613,VALID,167,VALID,0.194141,
2011-12-29, 02:03:04,VALID,917.482,VALID,0,VALID,95.0869,VALID,0,VALID,19.7208,VALID,167,VALID,0.507031,
2011-12-29, 02:04:04,VALID,917.491,VALID,0,VALID,95.2012,VALID,0,VALID,19.7613,VALID,167,VALID,0.794531,
2011-12-29, 02:05:04,VALID,917.472,VALID,0,VALID,95.1479,VALID,0,VALID,19.7418,VALID,167,VALID,0.494531,
2011-12-29, 02:06:04,VALID,917.455,VALID,0,VALID,95.1021,VALID,0,VALID,19.7028,VALID,167,VALID,0.124609,
2011-12-29, 02:07:04,VALID,917.473,VALID,0,VALID,95.2317,VALID,0,VALID,19.7028,VALID,167,VALID,0.648047,
2011-12-29, 02:08:04,VALID,917.437,VALID,0,VALID,95.3766,VALID,0,VALID,19.7028,VALID,167,VALID,0.581641,
2011-12-29, 02:09:04,VALID,917.42,VALID,0,VALID,95.3842,VALID,0,VALID,19.6638,VALID,167,VALID,0.438672,
2011-12-29, 02:10:04,VALID,917.389,VALID,0,VALID,95.4909,VALID,0,VALID,19.6443,VALID,167,VALID,0.664453,
2011-12-29, 02:11:04,VALID,917.396,VALID,0,VALID,95.5443,VALID,0,VALID,19.6248,VALID,167,VALID,0.481641,
2011-12-29, 02:12:04,VALID,917.385,VALID,0,VALID,95.6434,VALID,0,VALID,19.6248,VALID,167,VALID,0.462891,
2011-12-29, 02:13:04,VALID,917.368,VALID,0,VALID,95.6815,VALID,0,VALID,19.6053,VALID,167,VALID,0.573047,
2011-12-29, 02:14:04,VALID,917.358,VALID,0,VALID,95.773,VALID,0,VALID,19.6053,VALID,167,VALID,0.637891,
2011-12-29, 02:15:04,VALID,917.325,VALID,0,VALID,95.8263,VALID,0,VALID,19.5843,VALID,167,VALID,0.745703,
2011-12-29, 02:16:04,VALID,917.298,VALID,0,VALID,95.9483,VALID,0,VALID,19.6053,VALID,167,VALID,0.947656,
2011-12-29, 02:17:04,VALID,917.257,VALID,0,VALID,95.9788,VALID,0,VALID,19.6053,VALID,167,VALID,0.919922,
2011-12-29, 02:18:04,VALID,917.245,VALID,0,VALID,96.055,VALID,0,VALID,19.6248,VALID,167,VALID,0.830859,
2011-12-29, 02:19:04,VALID,917.263,VALID,0,VALID,96.1236,VALID,0,VALID,19.6248,VALID,167,VALID,0.910547,
2011-12-29, 02:20:04,VALID,917.256,VALID,0,VALID,96.0932,VALID,0,VALID,19.6248,VALID,167,VALID,0.669141,
2011-12-29, 02:21:04,VALID,917.263,VALID,0,VALID,96.0703,VALID,0,VALID,19.6233,VALID,167,VALID,0.681641,
2011-12-29, 02:22:04,VALID,917.219,VALID,0,VALID,96.0322,VALID,0,VALID,19.6443,VALID,167,VALID,0.512109,
2011-12-29, 02:23:04,VALID,917.234,VALID,0,VALID,96.0093,VALID,0,VALID,19.6443,VALID,167,VALID,0.427734,
2011-12-29, 02:24:04,VALID,917.207,VALID,0,VALID,96.0169,VALID,0,VALID,19.6248,VALID,167,VALID,0.613281,
2011-12-29, 02:25:04,VALID,917.221,VALID,0,VALID,95.9941,VALID,0,VALID,19.6053,VALID,167,VALID,0.397656,
2011-12-29, 02:26:04,VALID,917.218,VALID,0,VALID,96.0093,VALID,0,VALID,19.5648,VALID,167,VALID,0.601953,
2011-12-29, 02:27:04,VALID,917.167,VALID,0,VALID,96.0703,VALID,0,VALID,19.6053,VALID,167,VALID,0.796094,
2011-12-29, 02:28:04,VALID,917.188,VALID,0,VALID,96.1084,VALID,0,VALID,19.5858,VALID,167,VALID,0.780469,
2011-12-29, 02:29:04,VALID,917.152,VALID,0,VALID,96.055,VALID,0,VALID,19.5858,VALID,167,VALID,0.659375,
2011-12-29, 02:30:04,VALID,917.149,VALID,0,VALID,96.0932,VALID,0,VALID,19.5663,VALID,167,VALID,0.588281,
2011-12-29, 02:31:04,VALID,917.128,VALID,0,VALID,96.1236,VALID,0,VALID,19.5258,VALID,167,VALID,0.84375,
2011-12-29, 02:32:04,VALID,917.085,VALID,0,VALID,96.2075,VALID,0,VALID,19.5663,VALID,167,VALID,0.872266,
2011-12-29, 02:33:04,VALID,917.124,VALID,0,VALID,96.2685,VALID,0,VALID,19.5858,VALID,167,VALID,0.786328,
2011-12-29, 02:34:04,VALID,917.095,VALID,0,VALID,96.2685,VALID,0,VALID,19.5858,VALID,167,VALID,0.733203,
2011-12-29, 02:35:04,VALID,917.098,VALID,0,VALID,96.2151,VALID,0,VALID,19.5663,VALID,167,VALID,0.63125,
2011-12-29, 02:36:04,VALID,917.059,VALID,0,VALID,96.2304,VALID,0,VALID,19.5858,VALID,167,VALID,0.726563,
2011-12-29, 02:37:04,VALID,917.075,VALID,0,VALID,96.177,VALID,0,VALID,19.5258,VALID,167,VALID,0.603906,
2011-12-29, 02:38:04,VALID,917.068,VALID,0,VALID,96.1313,VALID,0,VALID,19.5063,VALID,167,VALID,0.534766,
2011-12-29, 02:39:04,VALID,917.059,VALID,0,VALID,96.177,VALID,0,VALID,19.5078,VALID,167,VALID,0.533203,
2011-12-29, 02:40:04,VALID,917.081,VALID,0,VALID,96.2075,VALID,0,VALID,19.5078,VALID,167,VALID,0.696094,
2011-12-29, 02:41:04,VALID,917.037,VALID,0,VALID,96.2304,VALID,0,VALID,19.4688,VALID,167,VALID,0.642969,
2011-12-29, 02:42:04,VALID,917.045,VALID,0,VALID,96.1846,VALID,0,VALID,19.4298,VALID,167,VALID,0.750391,
2011-12-29, 02:43:04,VALID,917.061,VALID,0,VALID,96.2609,VALID,0,VALID,19.4298,VALID,167,VALID,0.789453,
2011-12-29, 02:44:04,VALID,917.024,VALID,0,VALID,96.2914,VALID,0,VALID,19.3893,VALID,167,VALID,0.773828,
2011-12-29, 02:45:04,VALID,917.016,VALID,0,VALID,96.36,VALID,0,VALID,19.3698,VALID,167,VALID,0.951172,
2011-12-29, 02:46:04,VALID,916.996,VALID,0,VALID,96.3981,VALID,0,VALID,19.3713,VALID,167,VALID,0.804688,
2011-12-29, 02:47:04,VALID,916.979,VALID,0,VALID,96.421,VALID,0,VALID,19.3503,VALID,167,VALID,0.71875,
2011-12-29, 02:48:04,VALID,916.977,VALID,0,VALID,96.4057,VALID,0,VALID,19.3323,VALID,167,VALID,0.835547,
2011-12-29, 02:49:04,VALID,916.993,VALID,0,VALID,96.5201,VALID,0,VALID,19.3503,VALID,166,VALID,0.957422,
2011-12-29, 02:50:04,VALID,916.998,VALID,0,VALID,96.5429,VALID,0,VALID,19.3908,VALID,166,VALID,0.728906,
2011-12-29, 02:51:04,VALID,916.995,VALID,0,VALID,96.4972,VALID,0,VALID,19.3908,VALID,166,VALID,0.871094,
2011-12-29, 02:52:04,VALID,916.988,VALID,0,VALID,96.5201,VALID,0,VALID,19.3908,VALID,166,VALID,0.791016,
2011-12-29, 02:53:04,VALID,916.949,VALID,0,VALID,96.5353,VALID,0,VALID,19.3908,VALID,166,VALID,0.952344,
2011-12-29, 02:54:04,VALID,916.956,VALID,0,VALID,96.5582,VALID,0,VALID,19.4103,VALID,166,VALID,0.977734,
2011-12-29, 02:55:04,VALID,916.943,VALID,0,VALID,96.5506,VALID,0,VALID,19.3893,VALID,166,VALID,1.11914,
2011-12-29, 02:56:04,VALID,916.941,VALID,0,VALID,96.5887,VALID,0,VALID,19.4298,VALID,166,VALID,0.876953,
2011-12-29, 02:57:04,VALID,916.939,VALID,0,VALID,96.5277,VALID,0,VALID,19.4103,VALID,166,VALID,0.592969,
2011-12-29, 02:58:04,VALID,916.919,VALID,0,VALID,96.5811,VALID,0,VALID,19.4283,VALID,166,VALID,0.932813,
2011-12-29, 02:59:04,VALID,916.92,VALID,0,VALID,96.4972,VALID,0,VALID,19.4493,VALID,166,VALID,0.690625,
2011-12-29, 03:00:04,VALID,916.886,VALID,0,VALID,96.4591,VALID,0,VALID,19.4298,VALID,166,VALID,0.580859,
2011-12-29, 03:01:04,VALID,916.889,VALID,0,VALID,96.4819,VALID,0,VALID,19.4493,VALID,166,VALID,0.586328,
2011-12-29, 03:02:04,VALID,916.863,VALID,0,VALID,96.5201,VALID,0,VALID,19.4283,VALID,166,VALID,0.889063,
2011-12-29, 03:03:04,VALID,916.851,VALID,0,VALID,96.5048,VALID,0,VALID,19.4298,VALID,166,VALID,0.677344,
2011-12-29, 03:04:04,VALID,916.845,VALID,0,VALID,96.4057,VALID,0,VALID,19.3713,VALID,166,VALID,0.602734,
2011-12-29, 03:05:04,VALID,916.793,VALID,0,VALID,96.4133,VALID,0,VALID,19.3308,VALID,166,VALID,0.749219,
2011-12-29, 03:06:04,VALID,916.8,VALID,0,VALID,96.3981,VALID,0,VALID,19.2918,VALID,166,VALID,0.440234,
2011-12-29, 03:07:04,VALID,916.796,VALID,0,VALID,96.4515,VALID,0,VALID,19.3323,VALID,166,VALID,0.4125,
2011-12-29, 03:08:04,VALID,916.769,VALID,0,VALID,96.5201,VALID,0,VALID,19.3323,VALID,165,VALID,0.685547,
2011-12-29, 03:09:04,VALID,916.802,VALID,0,VALID,96.4819,VALID,0,VALID,19.2918,VALID,165,VALID,0.607031,
2011-12-29, 03:10:04,VALID,916.785,VALID,0,VALID,96.5429,VALID,0,VALID,19.3128,VALID,165,VALID,1.02227,
2011-12-29, 03:11:04,VALID,916.787,VALID,0,VALID,96.6192,VALID,0,VALID,19.3308,VALID,164,VALID,1.18828,
2011-12-29, 03:12:04,VALID,916.787,VALID,0,VALID,96.5887,VALID,0,VALID,19.3503,VALID,164,VALID,1.02891,
2011-12-29, 03:13:04,VALID,916.795,VALID,0,VALID,96.5506,VALID,0,VALID,19.3713,VALID,164,VALID,0.798828,
2011-12-29, 03:14:04,VALID,916.826,VALID,0,VALID,96.5124,VALID,0,VALID,19.3713,VALID,138,VALID,0.815234,
2011-12-29, 03:15:04,VALID,916.816,VALID,0,VALID,96.421,VALID,0.107441,VALID,19.3308,VALID,138,VALID,0.962109,
2011-12-29, 03:16:04,VALID,916.827,VALID,0,VALID,96.4133,VALID,0,VALID,19.3518,VALID,138,VALID,0.907031,
2011-12-29, 03:17:04,VALID,916.82,VALID,0,VALID,96.3905,VALID,0,VALID,19.3728,VALID,139,VALID,0.632813,
2011-12-29, 03:18:04,VALID,916.811,VALID,0,VALID,96.421,VALID,0,VALID,19.3518,VALID,138,VALID,0.951563,
2011-12-29, 03:19:04,VALID,916.818,VALID,0,VALID,96.3752,VALID,0,VALID,19.3518,VALID,139,VALID,0.870313,
2011-12-29, 03:20:04,VALID,916.81,VALID,0,VALID,96.3676,VALID,0,VALID,19.3518,VALID,140,VALID,1.12812,
2011-12-29, 03:21:04,VALID,916.8,VALID,0,VALID,96.3142,VALID,0,VALID,19.3518,VALID,145,VALID,1.02891,
2011-12-29, 03:22:04,VALID,916.839,VALID,0,VALID,96.2837,VALID,0,VALID,19.3518,VALID,145,VALID,1.29062,
2011-12-29, 03:23:04,VALID,916.811,VALID,0,VALID,96.3219,VALID,0,VALID,19.3908,VALID,145,VALID,1.22969,
2011-12-29, 03:24:04,VALID,916.815,VALID,0,VALID,96.3295,VALID,0,VALID,19.4298,VALID,145,VALID,1.21094,
2011-12-29, 03:25:04,VALID,916.823,VALID,0,VALID,96.2685,VALID,0,VALID,19.4688,VALID,145,VALID,1.18945,
2011-12-29, 03:26:04,VALID,916.79,VALID,0,VALID,96.2761,VALID,0,VALID,19.5273,VALID,145,VALID,1.18438,
2011-12-29, 03:27:04,VALID,916.806,VALID,0,VALID,96.1694,VALID,0,VALID,19.5468,VALID,145,VALID,1.12852,
2011-12-29, 03:28:04,VALID,916.777,VALID,0,VALID,96.0474,VALID,0,VALID,19.5468,VALID,145,VALID,0.970703,
2011-12-29, 03:29:04,VALID,916.799,VALID,0,VALID,95.9941,VALID,0,VALID,19.5468,VALID,145,VALID,1.23633,
2011-12-29, 03:30:04,VALID,916.76,VALID,0,VALID,95.9254,VALID,0,VALID,19.5468,VALID,145,VALID,0.760547,
2011-12-29, 03:31:04,VALID,916.775,VALID,0,VALID,95.8645,VALID,0.107441,VALID,19.5468,VALID,145,VALID,0.804688,
2011-12-29, 03:32:04,VALID,916.746,VALID,0,VALID,95.8187,VALID,0,VALID,19.5468,VALID,145,VALID,0.965625,
2011-12-29, 03:33:04,VALID,916.731,VALID,0,VALID,95.7577,VALID,0,VALID,19.5273,VALID,145,VALID,0.913672,
2011-12-29, 03:34:04,VALID,916.732,VALID,0,VALID,95.7958,VALID,0,VALID,19.5078,VALID,145,VALID,1.00078,
2011-12-29, 03:35:04,VALID,916.727,VALID,0,VALID,95.7882,VALID,0,VALID,19.5078,VALID,145,VALID,1.25078,
2011-12-29, 03:36:04,VALID,916.722,VALID,0,VALID,95.834,VALID,0,VALID,19.5273,VALID,145,VALID,1.31719,
2011-12-29, 03:37:04,VALID,916.738,VALID,0,VALID,95.7654,VALID,0,VALID,19.5273,VALID,145,VALID,1.07187,
2011-12-29, 03:38:04,VALID,916.734,VALID,0,VALID,95.7272,VALID,0,VALID,19.5273,VALID,145,VALID,1.22539,
2011-12-29, 03:39:04,VALID,916.741,VALID,0,VALID,95.712,VALID,0,VALID,19.5078,VALID,145,VALID,1.35117,
2011-12-29, 03:40:04,VALID,916.73,VALID,0,VALID,95.6662,VALID,0,VALID,19.5078,VALID,145,VALID,1.37734,
2011-12-29, 03:41:04,VALID,916.728,VALID,0,VALID,95.6205,VALID,0,VALID,19.5078,VALID,145,VALID,1.06641,
2011-12-29, 03:42:04,VALID,916.732,VALID,0,VALID,95.6053,VALID,0,VALID,19.5078,VALID,145,VALID,1.26875,
2011-12-29, 03:43:04,VALID,916.74,VALID,0,VALID,95.5595,VALID,0,VALID,19.5078,VALID,145,VALID,0.928125,
2011-12-29, 03:44:04,VALID,916.745,VALID,0,VALID,95.4604,VALID,0,VALID,19.4688,VALID,145,VALID,0.964063,